This is the latest recevied weather packets stored in our database for station/object K1RFS. If no packets are shown the sender has not sent any weather packets the latest 10 day(s).
| Time | Temp. | Humidity | Pressure | Rain* | Wind** | Luminosity | Snow |
|---|---|---|---|---|---|---|---|
| 1787987971 | 16.67° C | 89% | 1006.1 hPa | 0 mm | - | 0 W/m² | - |
| 1787987666 | 16.67° C | 88% | 1006.3 hPa | 0 mm | - | 0 W/m² | - |
| 1787987360 | 17.22° C | 88% | 1006.9 hPa | 0 mm | - | 0 W/m² | - |
| 1787987056 | 17.22° C | 87% | 1006.5 hPa | 0 mm | - | 0 W/m² | - |
| 1787986755 | 17.22° C | 87% | 1006.5 hPa | 0 mm | - | 0 W/m² | - |
| 1787986455 | 17.78° C | 86% | 1006.6 hPa | 0 mm | - | 0 W/m² | - |
| 1787986149 | 17.78° C | 86% | 1006.5 hPa | 0 mm | - | 0 W/m² | - |
| 1787985849 | 17.78° C | 85% | 1006.4 hPa | 0 mm | - | 0 W/m² | - |
| 1787985543 | 17.78° C | 84% | 1006.3 hPa | 0 mm | - | 0 W/m² | - |
| 1787985238 | 18.89° C | 83% | 1006.2 hPa | 0 mm | - | 0 W/m² | - |
| 1787984937 | 18.89° C | 80% | 1006.1 hPa | 0 mm | - | 0 W/m² | - |
| 1787984632 | 19.44° C | 76% | 1006.3 hPa | 0 mm | - | 0 W/m² | - |
| 1787984328 | 19.44° C | 74% | 1006.3 hPa | 0 mm | - | 0 W/m² | - |
| 1787984026 | 20° C | 72% | 1006.3 hPa | 0 mm | - | 0 W/m² | - |
| 1787983722 | 20.56° C | 67% | 1006.2 hPa | 0 mm | - | 0 W/m² | - |
| 1787983416 | 20.56° C | 63% | 1006.2 hPa | 0 mm | - | 0 W/m² | - |
| 1787983111 | 20.56° C | 60% | 1005.8 hPa | 0 mm | - | 0 W/m² | - |
| 1787982807 | 20.56° C | 61% | 1006 hPa | 0 mm | - | 0 W/m² | - |
| 1787982507 | 21.11° C | 58% | 1006.3 hPa | 0 mm | - | 0 W/m² | - |
| 1787982203 | 21.11° C | 58% | 1006 hPa | 0 mm | - | 0 W/m² | - |
| 1787981899 | 21.11° C | 56% | 1006.3 hPa | 0 mm | - | 0 W/m² | - |
| 1787981598 | 20.56° C | 58% | 1006.1 hPa | 0 mm | - | 0 W/m² | - |
| 1787981293 | 20.56° C | 60% | 1005.7 hPa | 0 mm | - | 0 W/m² | - |
| 1787980993 | 20.56° C | 61% | 1005.6 hPa | 0 mm | - | 0 W/m² | - |
| 1787980691 | 21.11° C | 59% | 1005.4 hPa | 0 mm | - | 0 W/m² | - |
* Rain latest hour (hover to see other rain measurements)
** Current wind speed in m/s (hover to see current wind gust speed)